N2DJ Weather Reports


Display with metric or nautical units.
time (UTC)temp
F
wind
direction
speed
MPH
gust
MPH
rain 1hr
in
rain 24hr
in
rain mn
in
humidity
%
barometer
mb
20260505151530 65 248 6.0 25.0 0.00 0.15 0.15 69 1004.0
20260505140121 63 257 5.0 17.0 0.00 0.15 0.15 72 1003.6
20260505124514 61 202 3.0 17.0 0.00 0.15 0.15 74 1002.7
20260505123016 63 221 8.0 18.0 0.00 0.15 0.15 71 1002.6
20260505121512 64 215 5.0 14.0 0.00 0.15 0.15 72 1002.5
20260505120019 64 254 7.0 17.0 0.00 0.15 0.15 72 1002.3
20260505114509 63 222 1.0 11.0 0.00 0.15 0.15 73 1002.0
20260505113009 63 202 3.0 14.0 0.00 0.15 0.15 74 1001.9
20260505111521 63 243 2.0 13.0 0.00 0.15 0.15 75 1001.9
20260505101559 60 220 3.0 9.0 0.00 0.15 0.15 84 1000.9
20260505100101 58 250 2.0 7.0 0.00 0.15 0.15 89 1000.9
20260505094558 57 205 1.0 6.0 0.00 0.15 0.15 92 1000.7
20260505093057 56 199 0.0 7.0 0.00 0.15 0.15 94 1000.7
20260505091620 55 183 1.0 4.0 0.01 0.15 0.15 95 1000.7
20260505090120 54 184 0.0 3.0 0.01 0.15 0.15 95 1000.6
20260505084612 54 192 0.0 3.0 0.01 0.15 0.15 95 1000.9
20260505083106 54 180 0.0 0.0 0.01 0.15 0.15 95 1001.0
20260505081601 54 182 0.0 4.0 0.00 0.14 0.14 95 1001.2
20260505080100 54 184 1.0 6.0 0.00 0.14 0.14 95 1001.3
20260505074549 54 194 1.0 7.0 0.00 0.14 0.14 94 1001.4
20260505073054 54 189 3.0 9.0 0.00 0.14 0.14 94 1001.5
20260505071552 55 160 2.0 7.0 0.03 0.14 0.14 94 1001.6
20260505070050 55 150 1.0 6.0 0.13 0.14 0.14 93 1001.7
20260505064540 56 144 1.0 4.0 0.14 0.14 0.14 93 1002.1
20260505063041 56 246 2.0 8.0 0.14 0.14 0.14 92 1002.9
20260505061536 56 194 3.0 14.0 0.11 0.11 0.11 91 1002.9
20260505060052 57 252 6.0 16.0 0.01 0.01 0.01 87 1002.8
20260505054527 60 244 5.0 16.0 0.00 0.00 0.00 80 1002.6
20260505053023 61 261 3.0 16.0 0.00 0.00 0.00 75 1002.6
20260505051521 62 182 4.0 14.0 0.00 0.00 0.00 71 1002.6
20260505050119 63 252 6.0 16.0 0.00 0.00 0.00 69 1002.7
20260505041512 64 239 5.0 14.0 0.00 0.00 0.00 69 1002.6
20260505040011 62 261 4.0 9.0 0.00 0.00 0.00 71 1002.6
20260505034508 61 179 1.0 5.0 0.00 0.00 0.00 70 1002.4
20260505033006 61 172 1.0 6.0 0.00 0.00 0.00 69 1002.6
20260505031504 61 185 0.0 10.0 0.00 0.00 0.00 69 1002.8
20260505030004 61 186 1.0 7.0 0.00 0.00 0.00 69 1003.0
20260505024503 61 196 2.0 9.0 0.00 0.00 0.00 68 1003.3
20260505023003 61 170 1.0 5.0 0.00 0.00 0.00 64 1003.2
20260505021502 59 184 5.0 12.0 0.00 0.00 0.00 63 1003.2
20260505020003 60 161 1.0 6.0 0.00 0.00 0.00 59 1003.2
20260505014503 61 178 0.0 6.0 0.00 0.00 0.00 58 1003.0
20260505013002 62 161 3.0 6.0 0.00 0.00 0.00 54 1002.9
20260505011500 63 186 0.0 5.0 0.00 0.00 0.00 51 1003.0
20260505010104 64 167 0.0 5.0 0.00 0.00 0.00 49 1002.9
20260505010002 64 167 0.0 5.0 0.00 0.00 0.00 49 1002.9
20260505004600 65 214 1.0 3.0 0.00 0.00 0.00 48 1002.9
20260505003108 67 225 1.0 7.0 0.00 0.00 0.00 45 1002.7
20260505003001 67 225 1.0 7.0 0.00 0.00 0.00 44 1002.9
20260505001602 67 237 1.0 9.0 0.00 0.00 0.00 44 1002.9
20260505001502 67 237 2.0 9.0 0.00 0.00 0.00 44 1002.9
20260504234558 69 242 3.0 11.0 0.00 0.00 0.00 43 1003.0
20260504233059 69 257 2.0 9.0 0.00 0.00 0.00 45 1002.8
20260504231556 70 207 5.0 13.0 0.00 0.00 0.00 45 1003.1
20260504230055 70 232 4.0 15.0 0.00 0.00 0.00 46 1003.1
20260504224553 70 246 4.0 11.0 0.00 0.00 0.00 47 1003.1
20260504223110 70 284 4.0 18.0 0.00 0.00 0.00 44 1003.2
20260504221553 71 210 7.0 13.0 0.00 0.00 0.00 40 1003.2
20260504220053 71 248 4.0 12.0 0.00 0.00 0.00 39 1003.1
20260504214551 71 247 9.0 19.0 0.00 0.00 0.00 38 1003.2
20260504213050 72 319 7.0 20.0 0.00 0.00 0.00 40 1003.1
20260504211633 71 297 5.0 14.0 0.00 0.00 0.00 42 1003.2
20260504210051 72 193 3.0 19.0 0.00 0.00 0.00 44 1003.3
20260504204545 71 256 8.0 15.0 0.00 0.00 0.00 43 1003.6
20260504203044 71 229 6.0 17.0 0.00 0.00 0.00 43 1003.6
20260504201543 72 173 6.0 21.0 0.00 0.00 0.00 42 1003.6
20260504200043 72 249 5.0 17.0 0.00 0.00 0.00 44 1003.6
20260504194547 71 283 5.0 15.0 0.00 0.00 0.00 46 1004.0
20260504193038 71 227 9.0 21.0 0.00 0.00 0.00 45 1004.3
20260504191537 71 198 5.0 20.0 0.00 0.00 0.00 49 1004.5
20260504190032 69 242 7.0 21.0 0.00 0.00 0.00 49 1004.8
20260504184543 69 246 8.0 19.0 0.00 0.00 0.00 51 1005.0
20260504183028 68 235 7.0 24.0 0.00 0.00 0.00 52 1005.0
20260504181526 68 234 7.0 15.0 0.00 0.00 0.00 53 1005.1
20260504180024 67 249 7.0 20.0 0.00 0.00 0.00 54 1005.5
20260504174520 67 277 10.0 22.0 0.00 0.00 0.00 55 1005.8
20260504173016 66 247 6.0 14.0 0.00 0.00 0.00 57 1005.9
20260504171513 64 198 9.0 23.0 0.00 0.00 0.00 55 1006.1